Wind_Speed
7 8 9 9 9 8 8 8 8 8 8 7 7 6 6 6 6 7 7 8 8 8 7 7 6 6 5 5 4 4 4 4 3 3 4 4 4 4 4 5 5 5 6
7 8 10 10 10 10 9 9 8 8 8 7 7 6 6 6 6 6 7 7 7 7 7 7 6 6 5 5 4 4 4 3 3 3 3 4 4 4 4 5 5 5 6
9 9 10 11 11 11 10 10 9 9 8 7 6 6 5 5 5 6 6 6 6 6 6 6 6 5 5 5 4 4 3 3 3 3 3 4 4 4 5 5 5 5 6
9 10 10 11 12 12 12 11 10 9 8 7 6 5 5 4 4 5 5 5 5 5 6 5 5 4 4 4 4 4 3 3 3 3 3 4 4 5 5 5 5 5 6
8 9 10 11 12 12 12 11 11 10 9 8 6 5 4 4 3 3 4 4 4 4 5 4 4 3 3 3 3 3 3 3 3 4 4 4 4 5 5 5 6 5 6
8 9 10 12 13 13 13 12 11 10 9 8 6 5 4 3 3 3 3 3 3 3 3 3 3 3 2 2 1 2 2 2 3 3 4 4 4 5 5 5 6 6 6
8 10 10 12 13 13 13 13 12 11 10 8 7 6 4 3 2 2 2 2 2 2 2 3 2 2 1 1 1 1 1 2 3 4 4 4 5 5 6 6 6 6 7
9 10 12 13 14 14 14 14 13 12 10 9 7 6 5 3 2 1 1 2 2 2 2 2 1 1 0 0 1 1 2 2 3 4 4 5 5 6 6 7 7 7 7
8 11 12 14 15 15 15 15 14 13 11 9 8 7 5 3 1 1 1 1 1 1 2 2 1 1 1 1 2 2 3 3 4 4 5 5 6 7 7 8 8 8 9
9 11 12 14 15 17 17 16 15 13 11 10 9 7 5 3 2 1 0 1 1 1 2 2 1 1 1 1 2 2 3 3 4 5 5 6 7 8 8 8 9 9 9
9 11 13 14 16 18 18 17 16 14 12 11 9 7 6 4 2 1 1 1 1 1 1 1 1 2 2 2 1 2 2 3 4 4 5 6 7 8 9 9 10 10 10
10 11 13 16 17 18 18 18 17 15 14 12 10 8 6 5 3 2 1 0 0 0 1 1 1 2 2 2 2 2 2 3 4 4 5 6 7 8 9 10 11 11 11
12 13 13 16 18 18 19 19 18 17 15 13 10 8 6 5 3 2 2 1 1 1 1 1 1 2 2 2 2 2 2 3 4 4 5 5 7 8 9 9 11 11 11
13 14 14 17 19 19 19 19 19 18 16 13 11 9 7 6 5 4 3 2 1 1 1 1 1 1 1 2 2 2 2 3 3 4 5 6 6 7 8 9 10 11 11
14 14 15 17 19 21 20 19 19 18 16 14 11 9 7 6 6 5 3 2 2 2 1 1 1 1 1 2 2 2 2 3 3 4 4 5 5 6 7 8 9 10 10
14 12 14 17 20 21 21 20 21 19 17 14 12 9 8 7 6 5 4 4 3 2 1 0 0 0 1 1 1 2 2 2 3 3 3 4 4 5 6 7 8 8 9
12 11 11 15 19 21 22 21 21 20 18 15 13 10 9 8 7 5 5 4 3 2 2 1 1 1 1 0 1 1 2 2 2 2 2 3 3 4 5 7 7 8 9
12 11 12 13 17 20 22 22 22 20 18 16 14 12 10 9 8 6 5 5 4 3 2 1 1 1 1 1 1 1 1 2 2 1 2 2 3 3 4 5 6 7 7
10 10 12 14 17 20 22 22 22 21 19 17 15 13 10 10 8 7 6 5 4 3 3 2 2 2 1 1 1 1 1 2 2 1 1 2 3 3 4 5 5 6 6
9 10 12 14 15 17 20 21 21 20 19 17 15 13 12 11 9 8 7 6 5 4 3 3 3 2 2 1 1 1 1 1 2 2 2 2 2 2 3 4 5 6 6
8 10 12 15 15 17 19 20 20 19 18 17 15 13 13 11 10 8 7 7 6 5 4 3 3 2 2 1 1 1 1 1 1 1 2 2 2 2 2 3 4 5 5
6 8 11 14 15 17 20 20 19 19 18 16 16 14 13 11 10 8 7 7 6 5 4 4 3 3 2 1 1 0 1 2 2 2 2 2 2 2 2 3 3 4 5
6 8 11 13 15 17 19 20 19 19 17 17 16 15 13 12 10 9 8 7 7 6 5 4 4 3 3 2 1 1 1 2 2 2 3 3 3 3 3 3 3 4 5
6 7 10 13 15 16 18 18 18 18 17 17 17 15 14 13 11 10 9 9 8 7 6 6 5 4 3 2 2 1 1 2 2 3 3 4 4 4 4 5 5 5 6
5 6 8 12 15 17 18 18 17 18 18 18 17 16 15 13 12 11 10 10 9 8 8 7 6 5 3 3 2 2 2 2 3 3 4 4 4 5 5 6 7 7 7
4 5 7 10 14 16 17 18 18 18 18 18 17 16 15 14 13 12 11 11 10 10 9 8 7 6 5 4 3 3 3 4 4 4 5 5 6 6 7 7 7 8 8
Wind_Direction
190 189 186 184 186 186 188 186 179 167 153 138 127 116 106 96 85 80 76 73 69 65 62 62 65 73 77 82 88 93 97 102 107 113 119 124 129 131 130 129 130 121 121
201 197 193 190 192 193 195 194 188 177 163 149 135 124 113 101 88 79 75 73 69 64 62 62 65 72 78 84 90 98 104 113 122 133 137 137 137 142 146 140 137 130 128
210 204 199 197 196 197 200 200 197 187 172 157 143 130 119 105 91 79 76 73 68 65 63 62 64 68 72 81 92 103 112 121 131 137 145 149 144 144 147 148 144 140 137
215 211 209 205 201 199 202 202 202 196 182 167 153 140 126 110 92 79 74 70 67 65 62 58 59 64 68 78 90 102 113 123 135 142 147 156 156 157 158 160 157 152 149
217 214 212 210 208 204 206 205 205 201 190 176 165 153 138 121 100 82 74 68 65 61 55 52 53 60 67 79 94 107 121 139 147 151 156 165 166 168 172 169 161 156 157
222 219 217 214 213 209 209 208 208 205 197 185 176 165 152 134 111 91 78 65 56 50 45 42 45 51 64 87 109 125 137 156 159 164 167 171 179 181 181 176 168 163 164
235 227 222 220 217 211 210 210 210 208 202 193 185 176 165 151 130 100 66 49 40 34 26 30 36 42 53 93 165 169 189 186 173 177 180 185 186 186 187 185 181 177 174
242 232 227 221 216 211 211 210 209 209 205 199 193 186 179 170 149 115 60 37 28 11 3 9 12 6 19 215 249 231 217 203 201 194 198 202 204 197 194 195 191 185 181
249 237 229 222 216 213 212 211 209 209 208 204 199 195 193 192 173 117 45 20 0 336 334 332 325 307 294 264 254 238 226 226 224 214 210 210 207 205 204 201 196 195 189
258 242 233 227 221 216 212 211 210 210 210 209 205 202 203 205 197 183 9 358 339 316 318 317 312 301 301 283 263 252 236 233 234 230 224 218 213 210 211 207 201 202 196
270 253 239 228 221 217 213 213 211 210 212 212 209 209 211 213 212 219 257 305 345 328 312 310 306 293 294 293 280 266 249 242 239 236 232 226 223 221 219 213 205 206 202
273 260 243 225 220 217 215 215 214 211 212 213 213 215 218 225 224 222 231 218 17 11 325 301 297 292 290 287 280 270 255 245 239 238 238 233 228 223 219 216 210 209 208
273 260 240 227 221 218 218 216 215 213 212 214 216 218 222 229 227 224 219 214 259 250 271 280 295 292 287 278 267 265 260 255 244 245 245 241 232 224 222 218 216 216 216
279 262 240 230 220 218 219 219 216 213 213 216 218 222 229 232 230 218 213 218 234 240 258 270 288 284 271 267 264 261 257 256 252 251 249 249 237 228 226 224 221 220 220
279 260 236 229 220 215 213 218 216 214 215 218 220 223 227 227 221 213 213 209 211 220 229 281 301 276 261 269 273 270 268 267 260 257 254 250 243 240 234 229 225 228 226
277 256 236 228 219 213 210 214 215 214 215 217 221 220 219 218 216 213 207 196 193 195 192 263 282 235 250 261 282 289 293 292 276 271 267 255 249 244 237 232 232 232 229
272 250 238 227 220 215 212 213 214 215 217 218 220 219 216 213 210 209 200 192 187 175 162 165 177 185 199 216 292 298 308 312 298 284 278 261 251 251 247 243 243 240 237
265 248 236 225 218 215 210 212 214 215 216 217 218 216 213 208 203 196 193 190 186 171 167 163 172 177 183 208 265 293 311 317 320 306 285 275 263 258 251 248 252 248 243
258 242 229 216 210 211 211 214 214 214 215 217 216 213 211 202 194 193 191 191 180 173 170 173 175 174 182 215 258 300 338 342 347 342 312 288 276 261 256 251 252 252 248
255 233 223 212 209 210 211 211 211 215 215 216 213 208 205 199 195 196 196 192 184 178 178 183 188 191 201 216 234 301 339 351 351 347 342 328 310 280 272 262 256 258 256
255 231 221 216 210 209 207 206 209 213 212 214 211 206 204 202 198 197 196 195 187 176 174 179 183 193 205 213 217 289 333 347 345 355 359 356 346 321 286 274 267 264 263
263 233 221 214 212 209 207 207 207 209 211 209 206 205 206 204 199 200 199 199 190 184 182 182 183 187 184 183 192 275 331 339 333 342 348 350 346 332 304 282 282 276 273
265 240 226 219 216 209 208 210 211 211 209 204 203 204 205 204 204 204 204 201 197 194 190 186 184 182 180 186 196 258 308 330 341 339 340 338 330 327 325 308 300 295 287
262 245 229 222 218 212 210 211 211 209 205 205 204 206 205 206 207 207 207 203 199 197 197 194 190 189 190 202 216 250 283 313 329 338 337 334 330 322 320 319 315 304 298
272 243 228 224 217 213 211 209 209 206 204 204 206 208 207 208 209 209 206 203 202 202 204 204 204 204 207 214 232 256 268 282 302 315 321 320 322 319 314 311 309 305 302
282 249 230 218 211 210 211 210 209 206 204 205 208 210 210 211 212 212 208 207 208 210 213 214 215 217 221 228 243 259 269 276 285 296 304 309 310 311 308 305 304 302 300
Height
5890 5891 5891 5892 5893 5894 5895 5895 5896 5896 5897 5897 5897 5897 5898 5898 5898 5898 5898 5898 5898 5898 5898 5898 5897 5897 5897 5897 5896 5896 5896 5895 5895 5895 5894 5894 5894 5894 5894 5894 5894 5894 5894
5890 5890 5890 5891 5892 5893 5894 5895 5896 5896 5896 5896 5897 5897 5898 5898 5899 5899 5899 5899 5898 5898 5898 5898 5898 5897 5897 5897 5896 5896 5896 5895 5895 5895 5895 5895 5894 5895 5894 5894 5895 5895 5895
5888 5888 5889 5890 5892 5893 5894 5894 5895 5895 5896 5896 5897 5897 5898 5898 5899 5899 5899 5899 5898 5898 5898 5898 5898 5897 5897 5897 5896 5896 5896 5895 5895 5895 5895 5895 5895 5895 5895 5895 5896 5896 5896
5887 5887 5888 5889 5890 5891 5893 5894 5894 5895 5895 5896 5897 5897 5898 5898 5899 5899 5899 5899 5899 5898 5898 5898 5897 5897 5897 5897 5896 5896 5896 5896 5895 5895 5895 5895 5895 5895 5896 5896 5896 5897 5897
5885 5886 5887 5888 5889 5890 5891 5892 5893 5894 5895 5895 5896 5897 5897 5898 5898 5898 5898 5899 5898 5898 5898 5897 5897 5897 5896 5896 5896 5896 5895 5895 5895 5895 5895 5895 5895 5895 5896 5896 5896 5897 5897
5884 5884 5885 5886 5888 5889 5890 5891 5892 5893 5894 5895 5896 5896 5897 5897 5898 5898 5898 5898 5898 5898 5897 5896 5896 5896 5896 5896 5895 5895 5895 5895 5895 5895 5895 5895 5895 5895 5896 5896 5897 5897 5898
5882 5882 5883 5884 5886 5887 5888 5890 5891 5892 5893 5894 5895 5896 5896 5897 5897 5897 5897 5897 5897 5897 5896 5896 5895 5895 5895 5895 5894 5894 5894 5894 5895 5895 5895 5895 5895 5895 5896 5896 5897 5897 5898
5880 5880 5881 5882 5884 5885 5887 5888 5890 5891 5892 5893 5894 5895 5896 5896 5897 5897 5897 5897 5896 5896 5895 5895 5895 5894 5894 5894 5894 5894 5894 5894 5894 5894 5894 5894 5895 5895 5895 5896 5896 5897 5898
5878 5879 5879 5880 5881 5883 5885 5887 5888 5890 5891 5892 5893 5894 5895 5895 5896 5896 5896 5896 5895 5895 5895 5894 5894 5893 5893 5893 5893 5893 5893 5893 5893 5893 5893 5893 5894 5894 5895 5895 5896 5897 5897
5876 5876 5877 5878 5879 5881 5883 5885 5887 5888 5890 5891 5892 5893 5894 5894 5894 5895 5895 5895 5894 5894 5894 5893 5893 5892 5892 5892 5892 5892 5892 5892 5892 5892 5892 5893 5893 5893 5894 5894 5895 5896 5897
5874 5874 5874 5875 5876 5878 5880 5882 5884 5886 5888 5890 5891 5892 5892 5893 5893 5893 5894 5894 5893 5893 5893 5892 5892 5892 5892 5891 5891 5891 5891 5891 5891 5891 5891 5892 5892 5892 5893 5893 5894 5895 5896
5871 5870 5870 5871 5873 5876 5878 5880 5882 5884 5886 5888 5889 5890 5891 5892 5892 5892 5892 5892 5892 5892 5892 5892 5891 5891 5891 5891 5890 5890 5890 5890 5890 5890 5890 5890 5891 5891 5891 5892 5893 5894 5895
5867 5867 5868 5868 5870 5873 5875 5877 5880 5882 5884 5886 5888 5889 5889 5890 5891 5891 5891 5891 5891 5891 5891 5891 5890 5890 5890 5890 5890 5890 5889 5889 5889 5889 5889 5889 5890 5890 5890 5891 5892 5893 5894
5863 5863 5864 5865 5867 5869 5872 5875 5877 5880 5882 5884 5886 5887 5888 5888 5889 5890 5890 5890 5890 5890 5890 5890 5890 5890 5889 5889 5889 5889 5889 5889 5888 5888 5888 5888 5889 5889 5889 5890 5891 5892 5893
5858 5858 5859 5861 5863 5866 5869 5872 5875 5877 5880 5882 5884 5885 5886 5887 5888 5889 5889 5889 5890 5890 5889 5889 5889 5889 5889 5889 5889 5888 5888 5888 5888 5887 5887 5887 5887 5888 5888 5889 5889 5890 5891
5854 5855 5856 5857 5859 5862 5866 5869 5872 5875 5878 5880 5882 5883 5884 5885 5886 5887 5888 5889 5889 5889 5889 5889 5889 5889 5889 5888 5888 5888 5888 5887 5887 5887 5886 5886 5886 5887 5887 5888 5888 5889 5890
5851 5852 5852 5853 5855 5859 5863 5866 5870 5873 5875 5878 5880 5881 5883 5884 5885 5886 5887 5888 5888 5889 5889 5889 5889 5889 5889 5888 5888 5888 5888 5887 5887 5886 5886 5886 5886 5886 5886 5887 5887 5888 5888
5848 5849 5850 5852 5853 5856 5860 5864 5867 5870 5873 5876 5878 5880 5881 5883 5884 5885 5886 5887 5887 5888 5888 5889 5889 5889 5889 5888 5888 5888 5888 5887 5887 5886 5886 5885 5885 5885 5885 5886 5886 5887 5887
5846 5846 5848 5850 5852 5855 5858 5861 5864 5868 5871 5874 5876 5878 5880 5881 5883 5884 5885 5886 5887 5888 5888 5888 5888 5889 5889 5889 5888 5888 5888 5887 5887 5886 5886 5885 5885 5885 5885 5885 5885 5886 5886
5844 5844 5846 5847 5849 5852 5855 5859 5862 5866 5869 5872 5874 5876 5878 5880 5881 5883 5884 5885 5886 5887 5887 5888 5888 5888 5888 5889 5888 5888 5888 5887 5887 5886 5886 5885 5885 5884 5884 5884 5885 5885 5885
5842 5843 5844 5846 5847 5851 5854 5857 5861 5864 5867 5870 5872 5875 5877 5878 5880 5882 5883 5884 5885 5886 5887 5887 5888 5888 5888 5889 5889 5888 5888 5887 5887 5886 5886 5885 5885 5884 5884 5884 5884 5884 5884
5841 5841 5843 5844 5847 5849 5852 5855 5858 5862 5864 5867 5870 5873 5875 5877 5879 5881 5882 5884 5885 5886 5886 5887 5888 5888 5888 5889 5889 5888 5888 5888 5887 5886 5886 5886 5885 5884 5884 5884 5884 5883 5883
5840 5840 5841 5843 5845 5847 5850 5853 5856 5860 5863 5866 5869 5872 5874 5876 5878 5880 5881 5883 5884 5885 5886 5887 5887 5888 5888 5888 5888 5889 5888 5888 5887 5887 5886 5886 5885 5885 5884 5884 5883 5883 5882
5838 5838 5839 5841 5843 5845 5848 5851 5854 5858 5861 5864 5867 5870 5872 5874 5876 5878 5880 5881 5883 5884 5885 5886 5887 5887 5888 5888 5888 5888 5888 5888 5888 5887 5887 5886 5885 5885 5884 5883 5883 5882 5882
5837 5837 5837 5838 5841 5843 5846 5849 5852 5856 5859 5862 5865 5868 5870 5873 5875 5877 5879 5880 5882 5883 5884 5885 5886 5887 5887 5887 5888 5887 5887 5887 5887 5887 5886 5886 5885 5884 5883 5883 5882 5882 5881
5835 5835 5836 5837 5839 5841 5844 5847 5850 5854 5857 5860 5863 5866 5869 5871 5873 5875 5877 5879 5880 5882 5883 5884 5885 5886 5886 5887 5887 5887 5887 5886 5886 5886 5885 5885 5884 5884 5883 5882 5881 5881 5880